New York Downtown Manhattan/w, NY

1:35 AM EDT on October 23, 2019 (GMT -0400)
New York Downtown Manhattan/w

Weather History for KJRB - August, 2019

Change the Weather History Date:

Saturday, August 31, 2019

  Actual Average (WUND) Record (WUND)
Temperature  
Mean Temperature 78 °F -  
Max Temperature 86 °F - - (-1)
Min Temperature 73 °F - - (-1)
Cooling Degree Days 14    
Growing Degree Days 28 (Base 50)    
Moisture  
Dew Point 57 °F    
Average Humidity 49    
Maximum Humidity 69    
Minimum Humidity 30    
Precipitation  
Precipitation 0.00 in - - ()
Sea Level Pressure  
Sea Level Pressure 30.21 in    
Wind  
Wind Speed 5 mph ()    
Max Wind Speed 13 mph    
Max Gust Speed 18 mph    
Visibility 10.0 miles    
Events      
Averages and records for this station are not official NWS values.
T = Trace of Precipitation, MM = Missing Value Source: Averaged Metar Reports

Daily Weather History Graph

Daily Weather History Graph

Search for Another Location

Airport or City:

Astronomy

Aug. 31, 2019 Rise Set
Actual Time 6:21 AM EDT 7:30 PM EDT
Civil Twilight 5:53 AM EDT 7:58 PM EDT
Nautical Twilight 5:19 AM EDT 8:31 PM EDT
Astronomical Twilight 4:44 AM EDT 9:06 PM EDT
Moon 7:34 AM EDT (8/31) 8:41 PM EDT (8/31)
Length of Visible Light 14h 04m
Length of Day
13h 08m
New Moon, 2% of the Moon is Illuminated
Aug 31
New Moon
Sep 5
First Quarter
Sep 14
Full
Sep 21
Last Quarter
Sep 28
New

Hourly Weather History & Observations

Time (EDT) Temp. Heat Index Dew Point Humidity Pressure Visibility Wind Dir Wind Speed Gust Speed Precip Events Conditions
12:56 AM 77.0 °F - 64.0 °F 64% 30.09 in 10.0 mi West 4.6 mph - N/A   Clear
1:56 AM 75.9 °F - 64.9 °F 69% 30.10 in 10.0 mi West 3.5 mph - N/A   Partly Cloudy
2:56 AM 75.9 °F - 64.9 °F 69% 30.10 in 10.0 mi Calm Calm - N/A   Clear
4:56 AM 73.9 °F - 61.0 °F 64% 30.14 in 10.0 mi NE 10.4 mph - N/A   Clear
5:56 AM 73.0 °F - 57.9 °F 59% 30.16 in 10.0 mi NNE 10.4 mph - N/A   Clear
6:56 AM 73.0 °F - 57.0 °F 57% 30.19 in 10.0 mi NE 10.4 mph - N/A   Clear
7:56 AM 73.0 °F - 57.0 °F 57% 30.21 in 10.0 mi ENE 10.4 mph - N/A   Scattered Clouds
8:56 AM 75.0 °F - 55.9 °F 51% 30.22 in 10.0 mi NE 10.4 mph - N/A   Partly Cloudy
9:56 AM 78.1 °F - 55.9 °F 46% 30.23 in 10.0 mi Variable 5.8 mph 16.1 mph N/A   Clear
10:56 AM 79.0 °F - 57.9 °F 48% 30.24 in 10.0 mi Variable 3.5 mph - N/A   Clear
11:56 AM 78.1 °F - 59.0 °F 52% 30.23 in 10.0 mi Calm Calm - N/A   Clear
12:56 PM 81.0 °F 81.1 °F 57.9 °F 45% 30.22 in 10.0 mi Variable 4.6 mph - N/A   Clear
1:56 PM 82.9 °F 82.1 °F 55.9 °F 39% 30.22 in 10.0 mi Calm Calm - N/A   Clear
2:56 PM 84.0 °F - 51.1 °F 32% 30.21 in 10.0 mi SSW 4.6 mph - N/A   Clear
3:56 PM 84.9 °F - 52.0 °F 32% 30.21 in 10.0 mi Calm Calm - N/A   Clear
4:56 PM 84.9 °F - 50.0 °F 30% 30.21 in 10.0 mi ENE 3.5 mph - N/A   Clear
5:56 PM 82.9 °F - 52.0 °F 34% 30.22 in 10.0 mi Variable 5.8 mph - N/A   Clear
6:56 PM 80.1 °F - 52.0 °F 38% 30.23 in 10.0 mi Calm Calm - N/A   Clear
7:56 PM 77.0 °F - 55.9 °F 48% 30.24 in 10.0 mi SW 3.5 mph - N/A   Clear
8:56 PM 75.9 °F - 55.0 °F 48% 30.26 in 10.0 mi Variable 4.6 mph - N/A   Clear
9:56 PM 75.0 °F - 55.9 °F 51% 30.27 in 10.0 mi NE 9.2 mph - N/A   Clear
10:56 PM 75.0 °F - 55.0 °F 50% 30.28 in 10.0 mi NNE 12.7 mph 18.4 mph N/A   Clear
11:56 PM 73.0 °F - 55.9 °F 55% 30.29 in 10.0 mi ENE 11.5 mph - N/A   Clear